Regional Weather Roundup
Issued by NWS

Home | Current Version | Previous Version | Graphics & Text | Print | Product List | Glossary On
Versions: 1 2 3 4 5 6 7 8 9 10 11 12 13 14 15 16 17 18 19 20 21 22 23 24 25 26 27 28 29 30 31 32 33 34 35 36 37 38 39 40 41 42 43 44 45 46 47 48 49 50
000
ASUS43 KLMK 271402
RWRKY
KENTUCKY REGIONAL WEATHER ROUNDUP
NATIONAL WEATHER SERVICE LOUISVILLE KY
1000 AM EDT SAT AUG 27 2016

NOTE "FAIR" INDICATES FEW OR NO CLOUDS BELOW 12,000 FEET
WITH NO SIGNIFICANT WEATHER AND/OR OBSTRUCTIONS TO VISIBILITY.

KYZ001>023-026-027-061>063-070>075-271500-
WESTERN AND SOUTH CENTRAL KENTUCKY

CITY           SKY/WX    TMP DP  RH WIND       PRES   REMARKS
PADUCAH        MOSUNNY   75  71  87 CALM      30.10R
HENDERSON      PTSUNNY   75  70  83 CALM      30.10R
OWENSBORO      MOSUNNY   82  74  77 S6        30.10S
HOPKINSVILLE   SUNNY     78  71  79 SE3       30.10S
BOWLING GREEN  CLOUDY    80  73  79 SE3       30.11R
GLASGOW        SUNNY     80  75  84 CALM      30.12S
$$

KYZ024-025-028>034-038-045-046-053-271500-
NORTH CENTRAL KENTUCKY

CITY           SKY/WX    TMP DP  RH WIND       PRES   REMARKS
LOUISVILLE/SDF CLOUDY    85  73  67 NE5       30.09F HX  91
LOUISVILLE/LOU CLOUDY    84  72  67 NE7       30.10F
FORT KNOX      PTSUNNY   80  73  77 E8        30.09S
$$

KYZ035>037-039>044-047>052-055>060-089>105-271500-
NORTHEAST KENTUCKY

CITY           SKY/WX    TMP DP  RH WIND       PRES   REMARKS
LEXINGTON      SUNNY     84  71  65 S6        30.14R
COVINGTON      MOSUNNY   82  74  76 SE8       30.13R
FRANKFORT      SUNNY     80  71  74 E3        30.12R
$$

KYZ054-064>069-076>088-106>120-271500-
SOUTHEAST KENTUCKY

CITY           SKY/WX    TMP DP  RH WIND       PRES   REMARKS
JACKSON        SUNNY     79  71  76 CALM      30.18R
LONDON         SUNNY     80  69  69 SE5       30.16R
SOMERSET       SUNNY     79  70  73 SE5       30.15R
MIDDLESBORO    SUNNY     73  71  92 CALM      30.18R
MONTICELLO     SUNNY    N/A N/A N/A N8        30.16R
$$




USA.gov is the U.S. government's official web portal to all federal, state and local government web resources and services.